Temp
-3 -3 -3 -3 -4 -4 -4 -4 -4 -4 -3 -3 -3 -4 -4 -3 -4 -4 -3 -4 -4 -5 -5 -5 -5 -5 -5 -5 -5 -6 -5 -6 -6 -6 -7 -7 -7 -6 -7 -6 -7 -7 -7 -6 -6 -6 -7 -7 -7
-4 -4 -3 -3 -4 -4 -4 -4 -4 -4 -4 -4 -4 -3 -4 -3 -3 -3 -3 -3 -4 -5 -5 -5 -5 -5 -5 -5 -6 -6 -6 -6 -6 -6 -7 -7 -7 -7 -7 -7 -7 -7 -7 -6 -6 -7 -7 -7 -7
-3 -3 -4 -3 -4 -4 -4 -4 -4 -4 -4 -4 -4 -3 -3 -3 -3 -3 -3 -3 -4 -5 -5 -5 -5 -5 -6 -6 -6 -6 -6 -6 -6 -6 -7 -7 -7 -7 -7 -7 -7 -7 -7 -7 -6 -7 -7 -7 -7
-3 -3 -3 -5 -4 -4 -4 -4 -4 -4 -4 -4 -4 -4 -3 -3 -4 -3 -3 -4 -4 -4 -5 -5 -5 -5 -6 -6 -6 -6 -6 -6 -6 -7 -7 -7 -7 -7 -7 -7 -7 -7 -7 -7 -7 -7 -7 -7 -7
-3 -3 -4 -3 -5 -4 -4 -4 -4 -4 -4 -4 -4 -4 -3 -3 -4 -3 -4 -4 -4 -4 -5 -5 -5 -5 -6 -6 -6 -6 -6 -6 -7 -7 -7 -7 -7 -7 -7 -7 -7 -7 -7 -7 -7 -7 -7 -7 -7
-3 -4 -5 -5 -4 -4 -4 -4 -4 -4 -4 -4 -4 -4 -4 -4 -4 -4 -4 -5 -4 -4 -5 -5 -5 -5 -6 -6 -6 -6 -6 -6 -6 -6 -7 -7 -6 -6 -7 -7 -7 -7 -7 -7 -7 -7 -7 -7 -7
-3 -5 -5 -4 -4 -4 -4 -4 -4 -4 -4 -4 -4 -4 -4 -4 -4 -4 -4 -5 -5 -5 -5 -5 -5 -5 -6 -6 -6 -6 -6 -6 -6 -6 -6 -6 -6 -7 -6 -7 -7 -7 -7 -7 -7 -7 -6 -7 -7
-5 -6 -6 -5 -4 -4 -4 -4 -4 -4 -4 -4 -4 -4 -4 -4 -4 -4 -4 -5 -5 -5 -5 -5 -6 -6 -6 -6 -6 -6 -6 -7 -7 -7 -6 -6 -7 -6 -6 -6 -7 -7 -7 -7 -7 -7 -6 -6 -6
-4 -6 -6 -6 -4 -4 -4 -4 -4 -4 -4 -4 -4 -4 -4 -4 -4 -4 -4 -5 -5 -6 -6 -6 -6 -6 -6 -6 -6 -6 -6 -6 -6 -6 -6 -6 -6 -6 -6 -6 -6 -7 -7 -7 -7 -7 -7 -7 -6
-4 -6 -5 -5 -6 -5 -5 -5 -4 -4 -4 -4 -4 -4 -4 -4 -4 -4 -4 -5 -5 -6 -6 -6 -6 -6 -6 -6 -6 -6 -6 -6 -6 -6 -6 -6 -6 -6 -6 -6 -6 -7 -7 -6 -7 -7 -7 -7 -7
-6 -6 -5 -5 -5 -7 -5 -5 -4 -6 -5 -4 -4 -4 -4 -5 -5 -5 -5 -5 -5 -5 -5 -6 -6 -6 -6 -6 -6 -7 -6 -6 -6 -6 -6 -6 -6 -6 -6 -7 -7 -6 -7 -6 -7 -7 -7 -7 -7
-6 -6 -6 -6 -6 -5 -6 -6 -6 -5 -5 -4 -4 -4 -4 -4 -5 -5 -5 -5 -5 -5 -6 -6 -5 -6 -6 -6 -6 -6 -6 -6 -6 -6 -6 -6 -6 -6 -6 -6 -6 -7 -7 -6 -6 -6 -7 -7 -7
-8 -6 -6 -6 -6 -6 -6 -7 -7 -5 -5 -5 -5 -4 -4 -4 -5 -4 -5 -5 -5 -5 -5 -5 -5 -6 -6 -6 -6 -6 -7 -7 -7 -7 -7 -6 -6 -6 -6 -6 -6 -6 -7 -6 -6 -7 -6 -6 -7
-6 -6 -7 -7 -7 -7 -6 -9 -6 -5 -6 -6 -5 -5 -4 -4 -5 -5 -5 -5 -5 -5 -5 -5 -5 -6 -6 -7 -7 -6 -6 -6 -7 -7 -7 -7 -6 -6 -6 -6 -6 -6 -6 -6 -6 -6 -6 -6 -6
-6 -7 -7 -7 -8 -9 -6 -7 -6 -5 -6 -6 -6 -5 -5 -5 -5 -5 -5 -5 -5 -5 -5 -5 -5 -6 -6 -6 -6 -7 -6 -7 -7 -7 -7 -6 -6 -6 -6 -6 -7 -7 -6 -6 -6 -6 -6 -6 -6
-6 -8 -8 -8 -7 -8 -6 -5 -4 -6 -7 -7 -6 -6 -5 -5 -5 -6 -6 -5 -5 -6 -5 -5 -6 -6 -5 -6 -6 -6 -6 -7 -7 -6 -6 -7 -7 -7 -6 -6 -6 -6 -6 -6 -6 -6 -6 -7 -6
-8 -8 -8 -7 -7 -8 -8 -8 -7 -7 -8 -7 -7 -7 -6 -6 -6 -6 -6 -5 -5 -5 -5 -5 -5 -5 -6 -6 -6 -6 -6 -6 -7 -7 -6 -6 -6 -6 -6 -6 -6 -6 -6 -6 -6 -6 -6 -6 -6
-7 -7 -8 -8 -7 -8 -9 -9 -8 -7 -7 -7 -7 -7 -7 -7 -6 -6 -6 -5 -5 -5 -5 -4 -5 -5 -6 -5 -5 -6 -6 -6 -6 -6 -6 -6 -6 -6 -6 -6 -6 -6 -6 -6 -6 -6 -6 -6 -6
-7 -8 -8 -8 -9 -9 -8 -7 -7 -8 -7 -7 -7 -7 -7 -7 -7 -6 -6 -5 -5 -5 -5 -4 -5 -5 -6 -6 -5 -6 -6 -6 -6 -6 -6 -6 -6 -6 -6 -6 -6 -6 -6 -6 -6 -6 -6 -6 -6
-8 -8 -8 -8 -9 -8 -8 -9 -8 -8 -9 -7 -7 -7 -7 -7 -6 -6 -5 -5 -5 -5 -5 -5 -5 -5 -5 -5 -6 -6 -6 -6 -7 -7 -7 -7 -6 -6 -6 -6 -6 -6 -6 -6 -6 -6 -6 -6 -6
-8 -8 -8 -8 -8 -7 -7 -7 -7 -8 -7 -7 -7 -7 -7 -6 -6 -6 -5 -5 -5 -5 -5 -5 -4 -5 -5 -4 -4 -5 -6 -7 -7 -7 -6 -7 -6 -6 -6 -6 -6 -6 -6 -6 -6 -6 -6 -6 -6
-8 -8 -7 -7 -8 -7 -7 -7 -7 -7 -8 -7 -7 -7 -7 -7 -6 -6 -5 -5 -5 -5 -4 -5 -5 -4 -4 -5 -5 -5 -6 -6 -6 -6 -7 -6 -6 -6 -6 -5 -6 -6 -5 -6 -6 -5 -6 -6 -6
-8 -7 -7 -8 -9 -8 -7 -7 -7 -7 -8 -8 -7 -8 -8 -7 -6 -6 -6 -5 -5 -5 -5 -5 -5 -5 -5 -5 -5 -6 -6 -6 -6 -6 -6 -6 -6 -6 -6 -6 -5 -5 -5 -5 -6 -5 -6 -6 -6
-9 -7 -7 -7 -8 -7 -7 -6 -7 -7 -8 -7 -8 -8 -8 -7 -6 -6 -6 -5 -6 -5 -5 -5 -5 -6 -6 -6 -6 -6 -6 -6 -7 -6 -6 -6 -6 -6 -6 -6 -6 -5 -5 -6 -6 -6 -6 -6 -6
-6 -6 -8 -7 -7 -6 -7 -7 -7 -8 -8 -8 -8 -9 -8 -7 -6 -6 -6 -5 -6 -5 -5 -5 -5 -6 -6 -6 -6 -6 -6 -6 -6 -7 -6 -6 -6 -6 -6 -6 -6 -6 -6 -6 -6 -6 -6 -6 -6
-6 -7 -7 -7 -6 -7 -7 -7 -7 -8 -8 -9 -7 -9 -8 -7 -6 -6 -6 -5 -6 -5 -5 -5 -6 -6 -6 -7 -6 -6 -6 -6 -7 -7 -6 -6 -7 -7 -6 -6 -6 -6 -6 -6 -6 -6 -6 -6 -6
-8 -7 -8 -7 -6 -6 -6 -6 -7 -7 -8 -8 -9 -9 -8 -8 -7 -6 -6 -6 -6 -6 -5 -5 -6 -6 -6 -6 -6 -6 -6 -6 -6 -6 -7 -7 -7 -6 -6 -6 -6 -6 -6 -6 -6 -6 -6 -6 -6
-7 -8 -8 -8 -7 -7 -6 -7 -7 -8 -7 -9 -9 -9 -8 -8 -8 -7 -6 -6 -6 -6 -6 -5 -5 -5 -6 -6 -6 -6 -6 -7 -7 -7 -7 -6 -7 -7 -6 -6 -6 -6 -7 -6 -6 -7 -6 -6 -7
-6 -6 -7 -7 -7 -7 -6 -7 -8 -8 -9 -9 -9 -9 -9 -8 -8 -7 -6 -6 -6 -6 -6 -6 -6 -6 -5 -6 -6 -7 -7 -7 -7 -7 -7 -7 -7 -7 -7 -7 -7 -7 -7 -7 -7 -7 -7 -7 -7
-7 -6 -8 -8 -8 -7 -7 -7 -7 -8 -8 -8 -9 -9 -8 -8 -7 -7 -6 -6 -6 -6 -6 -6 -6 -6 -6 -6 -6 -6 -7 -7 -7 -7 -7 -7 -8 -7 -7 -7 -7 -7 -7 -7 -7 -7 -7 -7 -7
Height
5908 5909 5909 5910 5914 5912 5913 5913 5912 5913 5912 5911 5909 5907 5908 5906 5906 5908 5905 5904 5904 5904 5904 5905 5905 5905 5904 5904 5906 5907 5907 5907 5907 5906 5906 5905 5904 5902 5902 5901 5900 5898 5897 5897 5897 5898 5898 5897 5897
5908 5908 5909 5910 5908 5914 5914 5912 5913 5912 5911 5911 5910 5908 5908 5908 5906 5905 5905 5905 5905 5905 5905 5905 5906 5906 5906 5906 5907 5908 5908 5908 5907 5907 5907 5906 5904 5903 5903 5902 5902 5901 5900 5900 5899 5899 5899 5899 5898
5910 5911 5913 5913 5912 5913 5913 5912 5911 5912 5911 5911 5911 5909 5908 5908 5908 5906 5906 5906 5906 5906 5906 5906 5907 5907 5907 5907 5908 5908 5908 5908 5908 5907 5908 5907 5906 5904 5904 5903 5904 5903 5902 5901 5901 5901 5900 5900 5899
5913 5914 5914 5909 5913 5912 5912 5912 5912 5912 5911 5910 5910 5908 5907 5907 5907 5907 5907 5907 5907 5907 5907 5907 5907 5906 5907 5907 5907 5908 5908 5907 5907 5907 5907 5907 5906 5906 5905 5905 5905 5904 5904 5902 5902 5902 5902 5901 5900
5912 5913 5913 5913 5913 5913 5913 5913 5913 5913 5912 5911 5910 5910 5908 5908 5908 5907 5908 5908 5908 5908 5907 5907 5908 5908 5908 5907 5908 5908 5907 5906 5906 5906 5907 5907 5907 5907 5906 5906 5905 5905 5905 5905 5904 5903 5903 5902 5902
5912 5913 5915 5915 5914 5914 5914 5913 5913 5912 5912 5912 5911 5910 5910 5910 5909 5908 5908 5908 5909 5908 5907 5907 5907 5907 5908 5907 5907 5907 5907 5906 5906 5905 5905 5906 5907 5907 5907 5907 5906 5906 5905 5905 5904 5903 5902 5902 5902
5914 5917 5917 5915 5915 5915 5915 5914 5914 5913 5913 5913 5912 5911 5911 5911 5909 5909 5908 5908 5909 5908 5907 5907 5907 5908 5907 5907 5907 5907 5906 5906 5905 5905 5905 5904 5905 5906 5907 5908 5907 5906 5906 5905 5905 5904 5903 5902 5902
5917 5920 5918 5916 5916 5915 5915 5915 5915 5914 5913 5912 5913 5911 5912 5911 5909 5909 5909 5907 5907 5907 5907 5908 5908 5908 5908 5908 5908 5907 5907 5908 5906 5905 5904 5903 5904 5905 5908 5908 5908 5907 5906 5906 5905 5904 5903 5902 5901
5917 5918 5919 5918 5917 5915 5914 5915 5914 5914 5912 5912 5912 5912 5911 5911 5909 5909 5909 5907 5906 5906 5907 5907 5908 5908 5908 5909 5909 5908 5908 5908 5907 5906 5905 5904 5905 5907 5908 5909 5909 5909 5907 5907 5906 5904 5904 5904 5903
5919 5916 5917 5917 5916 5914 5914 5914 5914 5915 5913 5912 5912 5912 5911 5910 5909 5908 5908 5907 5905 5905 5906 5906 5906 5907 5908 5908 5909 5909 5909 5909 5909 5908 5909 5908 5908 5909 5909 5909 5909 5908 5908 5908 5906 5905 5904 5904 5904
5917 5917 5917 5916 5917 5916 5913 5913 5914 5915 5913 5912 5912 5911 5910 5909 5908 5907 5907 5905 5904 5904 5903 5904 5905 5906 5908 5907 5908 5908 5908 5908 5909 5910 5911 5910 5909 5909 5909 5908 5908 5908 5908 5907 5905 5905 5905 5904 5904
5916 5916 5915 5915 5915 5915 5914 5912 5912 5913 5913 5912 5911 5910 5909 5908 5907 5906 5906 5905 5903 5902 5902 5902 5903 5905 5906 5907 5908 5908 5909 5909 5909 5909 5909 5910 5909 5909 5910 5908 5908 5907 5907 5906 5905 5905 5904 5902 5901
5915 5914 5914 5914 5914 5914 5913 5912 5911 5911 5911 5910 5909 5908 5907 5907 5906 5906 5905 5903 5902 5902 5902 5902 5902 5903 5904 5905 5906 5907 5908 5909 5909 5908 5908 5908 5908 5908 5909 5908 5907 5907 5906 5905 5905 5904 5903 5903 5902
5912 5913 5914 5914 5914 5913 5914 5914 5914 5910 5910 5909 5908 5907 5905 5905 5904 5903 5903 5902 5901 5901 5900 5900 5900 5901 5901 5902 5902 5903 5905 5907 5908 5907 5907 5907 5907 5907 5907 5907 5906 5905 5904 5904 5905 5903 5903 5902 5903
5910 5913 5914 5913 5913 5914 5914 5914 5912 5910 5909 5907 5906 5905 5904 5903 5902 5902 5902 5901 5899 5900 5898 5898 5899 5899 5899 5899 5899 5900 5903 5904 5905 5906 5905 5904 5905 5905 5905 5906 5907 5905 5904 5903 5904 5904 5900 5903 5901
5911 5915 5918 5915 5912 5912 5914 5905 5908 5910 5909 5907 5906 5905 5903 5902 5901 5900 5899 5898 5898 5897 5898 5897 5896 5896 5896 5894 5894 5897 5898 5901 5902 5901 5902 5903 5903 5903 5904 5904 5906 5906 5904 5903 5903 5903 5900 5903 5903
5911 5916 5918 5914 5912 5914 5913 5916 5911 5909 5908 5907 5906 5905 5903 5901 5900 5898 5896 5896 5895 5895 5896 5894 5892 5890 5891 5890 5889 5895 5895 5896 5900 5899 5900 5901 5901 5902 5901 5904 5904 5905 5905 5903 5904 5904 5903 5902 5903
5916 5919 5915 5917 5911 5910 5913 5914 5913 5909 5908 5907 5906 5904 5903 5901 5899 5896 5895 5894 5893 5892 5893 5889 5886 5887 5888 5885 5887 5888 5891 5892 5896 5897 5898 5897 5899 5900 5902 5903 5903 5904 5903 5903 5904 5904 5904 5903 5903
5911 5913 5916 5915 5910 5910 5913 5913 5913 5911 5907 5907 5905 5904 5902 5900 5897 5896 5894 5892 5891 5889 5888 5885 5885 5884 5877 5882 5884 5886 5888 5890 5893 5895 5895 5895 5896 5899 5899 5900 5901 5902 5902 5902 5903 5904 5903 5903 5904
5909 5912 5914 5912 5909 5907 5909 5909 5909 5909 5906 5906 5905 5903 5901 5898 5897 5895 5893 5891 5889 5887 5885 5884 5879 5879 5881 5883 5882 5883 5885 5888 5890 5892 5893 5894 5895 5897 5898 5899 5899 5900 5901 5902 5902 5903 5903 5903 5903
5906 5912 5912 5910 5908 5908 5908 5907 5906 5906 5904 5904 5903 5901 5898 5896 5894 5893 5891 5889 5886 5886 5884 5883 5880 5881 5883 5882 5881 5882 5884 5886 5888 5888 5890 5891 5893 5895 5895 5896 5897 5898 5900 5901 5902 5902 5903 5903 5903
5908 5909 5905 5905 5907 5910 5905 5910 5898 5899 5907 5901 5901 5898 5897 5896 5894 5890 5889 5888 5886 5885 5883 5882 5881 5880 5880 5881 5881 5883 5884 5886 5888 5889 5889 5890 5891 5892 5892 5892 5893 5895 5897 5900 5901 5901 5903 5903 5903
5905 5902 5902 5903 5905 5908 5910 5910 5908 5903 5904 5904 5900 5899 5894 5892 5891 5890 5888 5886 5884 5883 5882 5881 5879 5879 5879 5880 5881 5883 5885 5885 5887 5887 5888 5888 5888 5888 5889 5889 5889 5891 5894 5898 5900 5901 5902 5903 5904
5900 5900 5901 5903 5905 5909 5909 5908 5908 5907 5897 5886 5897 5892 5891 5890 5889 5887 5885 5884 5883 5882 5880 5880 5879 5879 5879 5880 5881 5882 5884 5885 5885 5886 5886 5885 5885 5886 5886 5886 5886 5889 5893 5896 5898 5900 5901 5902 5903
5896 5898 5902 5907 5908 5909 5898 5903 5905 5902 5900 5897 5893 5890 5886 5886 5885 5884 5882 5881 5880 5880 5879 5878 5878 5879 5880 5879 5880 5881 5881 5883 5883 5883 5884 5883 5883 5883 5884 5884 5885 5887 5891 5894 5897 5899 5900 5901 5902
5893 5895 5903 5906 5906 5904 5900 5900 5903 5896 5894 5891 5887 5887 5882 5883 5882 5881 5880 5879 5878 5878 5878 5877 5877 5878 5879 5879 5879 5880 5881 5882 5882 5881 5881 5880 5881 5882 5882 5883 5885 5886 5890 5893 5895 5896 5898 5899 5900
5891 5890 5898 5903 5905 5905 5905 5902 5897 5891 5891 5888 5886 5884 5882 5880 5878 5877 5877 5877 5877 5877 5877 5876 5877 5877 5878 5879 5879 5881 5880 5880 5881 5880 5879 5879 5879 5880 5881 5882 5884 5886 5889 5891 5892 5893 5895 5897 5899
5886 5895 5895 5898 5900 5899 5900 5894 5894 5888 5888 5888 5887 5884 5881 5877 5876 5874 5873 5874 5874 5875 5875 5876 5876 5877 5878 5880 5880 5880 5880 5880 5880 5878 5876 5874 5876 5879 5880 5881 5882 5884 5887 5889 5891 5892 5894 5895 5897
5883 5885 5887 5896 5898 5895 5895 5898 5886 5887 5886 5885 5884 5882 5879 5875 5872 5870 5869 5870 5872 5873 5873 5875 5875 5877 5878 5878 5879 5879 5880 5880 5880 5879 5876 5874 5875 5877 5879 5881 5882 5882 5885 5888 5890 5891 5893 5894 5895
5878 5880 5883 5888 5891 5892 5892 5893 5889 5883 5883 5882 5880 5878 5877 5874 5869 5865 5864 5867 5869 5871 5871 5872 5873 5874 5875 5877 5878 5878 5880 5879 5879 5880 5879 5875 5875 5875 5878 5879 5881 5883 5884 5885 5887 5888 5891 5892 5893
Wind_Speed
10 9 6 6 10 10 6 4 6 6 4 5 5 6 4 8 6 7 9 9 9 8 10 8 6 5 5 4 3 2 2 3 5 7 7 8 8 7 7 8 13 15 13 11 9 8 6 4 3
9 8 6 8 11 3 3 1 11 5 5 4 2 5 4 3 6 6 6 9 9 8 7 7 6 6 4 4 2 2 2 2 4 5 5 7 7 7 6 7 8 11 13 13 14 12 8 5 4
9 8 5 8 3 2 8 5 5 2 5 4 1 3 4 3 3 4 4 4 8 8 6 6 5 5 4 4 4 4 1 0 2 3 4 5 6 5 5 6 7 8 8 10 10 9 8 5 3
14 13 11 10 5 5 4 3 8 2 3 5 4 4 6 5 2 1 2 3 4 7 7 6 5 5 5 5 6 4 1 1 2 3 5 3 4 4 5 5 4 5 7 9 8 7 6 6 3
12 11 12 5 5 5 3 2 6 5 3 3 3 3 4 6 4 2 2 3 3 4 6 6 4 5 4 5 4 3 2 1 3 4 5 4 5 6 6 6 6 6 6 7 8 6 5 3 3
11 16 10 6 6 2 3 4 5 1 3 4 2 4 4 5 5 5 3 1 3 3 4 2 3 4 2 4 4 4 3 2 3 1 2 6 7 7 7 8 6 7 7 5 4 6 5 4 3
16 3 2 3 4 2 2 3 2 0 1 2 5 7 7 6 8 8 5 3 3 4 5 4 3 2 2 4 4 4 1 3 3 3 1 3 9 9 9 8 6 7 6 7 6 6 6 4 1
7 14 2 5 1 1 1 3 4 3 2 2 4 6 7 9 9 8 7 5 4 6 7 5 5 3 3 3 4 4 4 5 1 3 3 5 11 11 10 9 7 6 5 6 6 1 2 7 6
4 9 8 3 5 3 4 5 4 3 2 1 3 5 6 8 7 7 7 7 6 8 7 7 7 6 5 4 6 6 6 5 2 6 9 14 17 11 10 8 7 6 5 3 8 11 10 7 11
5 8 10 6 2 6 5 7 6 4 2 5 7 8 8 7 6 7 9 8 6 6 5 8 7 6 5 5 6 7 7 4 2 5 7 10 9 8 8 8 6 4 4 1 4 6 6 6 5
12 11 9 5 4 4 6 7 5 4 7 6 6 7 7 7 7 6 6 7 6 6 5 8 8 7 6 7 8 9 9 6 3 4 5 5 4 2 6 8 5 2 2 0 2 3 3 4 3
11 12 10 9 8 9 10 11 8 7 6 8 10 9 7 6 7 8 9 9 7 8 8 6 7 7 8 8 7 8 9 8 6 4 5 4 4 4 4 5 3 2 3 3 3 2 3 4 6
7 13 10 9 11 9 8 8 10 11 12 12 12 11 10 7 6 8 9 10 10 8 8 6 5 9 10 10 9 10 10 10 8 7 6 4 3 3 4 3 4 2 1 5 4 4 5 3 3
14 13 13 10 8 11 9 10 3 17 11 11 11 11 10 9 7 9 11 11 11 12 11 11 9 10 12 13 12 13 12 14 11 9 7 4 2 2 3 6 5 6 6 7 4 3 2 5 2
14 11 11 11 12 10 6 8 15 15 11 13 13 12 11 10 8 9 11 12 13 12 14 11 12 16 15 16 13 17 12 13 13 11 9 8 4 2 2 4 5 6 4 3 2 4 4 6 3
10 6 5 13 11 11 6 13 5 18 12 14 14 12 13 12 11 11 12 13 13 13 14 15 18 17 18 17 20 20 16 15 15 17 12 8 4 5 8 3 4 3 1 3 3 4 5 4 4
6 7 12 8 15 11 10 13 19 11 11 13 13 13 13 13 15 14 15 15 17 16 14 18 19 21 20 18 22 16 19 16 15 14 10 7 7 8 6 5 3 4 5 5 4 4 5 5 3
10 9 13 9 11 15 10 9 14 11 12 11 10 12 13 15 16 17 17 17 18 19 19 20 19 22 23 22 12 22 23 18 15 13 11 10 7 10 8 7 5 5 5 8 8 5 4 3 3
14 17 11 12 22 10 7 9 11 15 10 11 12 12 15 16 17 19 17 17 17 20 17 16 12 17 21 10 14 18 22 17 15 14 14 12 7 9 9 9 9 7 4 3 6 6 3 1 2
17 5 5 15 12 10 9 11 9 13 11 11 14 17 19 20 19 21 19 17 18 16 16 11 18 13 14 15 17 17 18 18 18 16 15 12 10 11 10 8 10 9 6 5 4 5 8 5 2
10 6 11 16 6 2 5 5 10 9 9 10 13 17 21 22 22 20 18 16 17 13 12 11 13 13 12 10 7 11 18 17 18 15 12 10 11 10 12 13 12 11 11 10 6 2 5 4 2
6 15 16 9 4 10 12 13 30 7 13 17 19 22 20 19 20 21 18 13 14 13 10 9 10 12 10 7 7 9 15 9 9 8 8 11 11 13 11 13 14 14 14 12 9 4 4 4 5
16 16 12 8 7 4 10 11 9 10 10 9 12 18 21 23 20 17 17 15 12 13 8 8 7 8 8 7 8 8 9 9 9 8 8 11 11 13 10 7 13 13 17 15 11 6 6 6 7
13 12 8 4 4 8 13 9 10 13 26 6 16 22 24 25 20 17 15 14 11 10 8 7 6 7 9 9 9 9 10 10 9 10 11 11 12 10 12 10 9 11 16 17 13 8 8 6 9
13 11 4 8 11 9 14 10 14 15 20 20 26 21 24 25 19 17 15 13 12 10 8 8 8 8 9 8 6 7 10 7 7 8 7 8 8 10 10 11 10 14 17 16 15 10 9 8 8
11 15 10 7 10 15 20 8 10 16 20 16 19 21 25 24 20 18 16 14 11 11 8 8 9 9 8 7 7 7 6 5 6 9 9 8 9 10 8 11 12 16 17 17 16 12 12 10 11
18 18 13 15 16 15 15 15 13 26 13 13 15 19 23 22 21 19 17 16 11 11 10 9 9 8 9 8 8 7 7 7 7 7 10 11 13 14 10 11 15 17 18 18 17 15 14 12 12
19 16 17 14 11 13 12 20 11 21 28 8 14 15 19 20 19 20 20 15 12 11 10 11 9 10 11 10 9 7 6 5 3 9 15 11 15 13 13 14 16 17 17 17 15 14 13 13 12
19 20 16 16 16 18 10 11 12 11 12 13 12 14 19 24 25 22 21 16 13 11 10 10 10 10 11 12 11 9 7 5 6 7 9 6 8 14 16 15 16 16 16 15 14 13 13 12 12
21 20 18 15 13 14 16 15 13 15 20 22 16 17 20 23 29 23 17 14 13 11 8 9 10 9 9 10 10 10 7 6 5 5 7 3 5 14 18 21 13 12 19 13 17 12 12 12 12
Wind_Direction
83 98 108 105 90 103 108 134 174 162 153 125 128 125 172 133 141 162 148 142 143 160 161 174 184 208 197 169 176 160 129 105 97 112 95 88 86 79 68 70 74 87 66 102 117 133 133 151 192
79 80 87 95 145 195 224 234 176 175 176 157 136 157 138 141 140 142 150 143 145 155 171 182 190 209 205 193 180 193 151 92 107 113 108 92 89 89 77 62 82 94 85 101 101 113 124 133 157
65 63 80 126 118 121 160 105 152 147 210 189 223 183 183 161 156 138 138 158 154 163 174 172 186 205 207 199 200 198 205 177 92 136 134 122 102 91 89 76 87 104 100 92 102 122 118 113 131
71 78 74 101 170 128 140 166 172 255 248 198 212 211 199 187 175 137 112 187 175 164 175 187 193 189 200 194 198 203 239 78 180 168 171 167 138 115 114 112 88 86 99 103 105 131 121 94 91
69 61 76 91 137 81 41 185 224 212 193 192 213 241 226 208 194 224 132 230 216 171 199 188 194 200 193 184 175 155 154 202 176 188 194 188 158 130 134 138 118 98 98 105 112 125 118 100 85
68 56 64 85 103 86 76 85 96 263 265 248 282 263 244 229 237 234 206 229 268 212 233 224 212 206 195 183 163 145 112 150 136 119 185 204 187 154 146 143 125 106 99 89 91 91 93 69 76
78 112 63 41 52 78 82 41 25 124 29 223 244 242 242 242 253 251 231 192 246 256 228 239 233 257 200 183 180 180 209 176 148 27 0 180 175 171 148 144 122 95 92 85 76 81 81 48 172
123 142 205 62 93 101 21 26 24 7 322 274 262 248 246 244 255 269 274 236 226 240 240 238 238 242 240 209 189 192 183 143 220 299 288 256 163 160 145 140 123 115 84 55 65 33 75 40 141
109 141 133 148 290 308 332 334 350 5 355 301 306 299 271 265 277 291 285 269 256 253 258 262 266 245 240 215 194 198 188 197 111 59 100 87 136 152 147 134 140 116 105 65 65 86 115 106 118
127 102 205 188 304 279 292 309 319 308 288 284 286 285 291 289 298 308 297 284 258 253 265 272 271 260 242 215 204 207 201 207 185 97 116 114 128 148 147 131 133 127 108 115 88 98 113 115 93
153 209 202 214 228 281 311 293 298 0 281 280 288 303 303 285 293 311 299 269 255 258 263 267 264 258 233 225 216 219 220 218 167 149 136 117 128 170 167 153 131 129 109 180 142 116 123 122 130
198 199 221 249 243 270 282 275 272 269 282 297 293 290 297 286 289 296 288 285 269 265 293 248 249 255 245 236 229 232 237 218 201 186 160 142 108 86 78 87 109 200 199 248 250 195 180 157 124
206 218 229 218 248 254 254 254 265 279 286 293 288 283 274 271 279 288 290 280 285 282 303 249 287 256 253 226 229 228 232 229 208 202 192 174 133 88 63 63 64 80 223 239 258 281 330 286 286
203 195 199 218 238 250 260 264 324 292 289 290 283 289 282 281 297 300 297 289 277 279 275 296 272 289 294 238 238 225 225 221 221 212 209 197 137 57 41 10 24 343 260 238 257 340 314 292 92
193 200 215 229 236 239 279 294 300 270 283 290 295 298 303 305 310 305 304 312 297 289 285 293 272 273 291 261 248 223 227 220 221 222 216 222 199 292 21 28 13 21 82 222 286 314 314 28 33
199 199 310 258 271 256 208 318 182 278 279 287 292 296 299 309 307 310 319 329 314 299 289 291 294 273 296 282 285 219 210 219 223 238 231 208 211 244 302 29 355 346 263 258 286 326 347 36 3
238 212 208 271 264 232 222 214 274 271 277 287 298 305 307 315 315 311 313 320 316 313 306 297 294 284 298 285 283 234 213 212 225 243 243 237 249 249 260 279 287 277 274 255 282 310 22 37 88
226 237 282 225 283 250 239 277 283 276 271 280 304 314 321 325 322 320 307 308 314 314 321 302 289 283 285 273 288 209 212 208 219 235 241 253 239 245 255 262 249 254 273 277 250 276 333 24 14
218 207 215 249 249 215 254 240 243 284 262 277 298 314 318 320 318 322 317 300 305 312 323 302 288 284 277 292 297 242 213 206 220 234 242 251 253 233 238 250 242 246 256 287 229 251 262 283 13
210 226 243 264 268 238 203 253 248 256 271 295 289 300 307 313 318 322 318 309 299 309 314 306 279 307 300 283 271 252 205 205 217 229 242 256 247 250 251 256 251 228 229 227 241 253 248 227 274
207 182 245 241 231 305 288 310 267 289 294 291 299 301 309 308 312 321 315 312 296 303 301 299 277 270 259 246 209 197 207 213 221 226 236 247 250 253 256 259 249 242 226 227 227 241 197 193 218
194 250 245 199 213 281 221 280 311 159 292 298 300 290 289 301 301 313 310 301 289 294 294 294 266 258 237 203 190 208 212 218 247 245 247 257 262 245 297 253 251 244 223 218 202 205 206 199 160
186 252 226 221 234 287 294 296 271 287 293 301 269 288 302 308 299 304 300 300 284 284 288 293 256 221 221 209 197 194 209 220 240 258 267 270 274 244 280 246 249 237 205 202 191 191 172 176 166
229 234 209 191 291 297 267 220 293 289 306 338 295 291 293 301 289 292 289 292 278 274 274 275 248 226 217 194 190 205 218 222 235 253 275 271 255 262 276 256 206 206 202 193 196 202 184 182 170
223 210 232 268 263 285 230 244 271 269 264 258 258 275 283 291 277 281 280 286 288 266 251 258 249 232 214 198 198 192 199 215 232 264 289 268 263 270 256 222 200 194 194 194 200 206 200 188 184
224 215 201 252 236 291 313 339 289 279 281 279 278 272 281 292 281 267 281 278 281 261 240 250 249 239 231 221 195 180 196 213 239 254 259 258 255 255 246 222 208 186 190 192 201 203 208 200 193
232 227 215 252 264 275 264 288 308 296 314 324 288 275 291 307 303 272 275 277 273 253 232 232 243 230 233 228 211 201 199 220 257 279 298 270 244 232 243 212 196 192 199 198 199 202 210 210 205
205 236 234 242 246 257 279 287 283 275 296 277 289 288 295 308 306 292 268 273 269 250 233 216 218 218 225 233 236 234 224 243 299 316 292 238 209 213 230 209 200 206 207 203 203 208 213 208 211
236 235 233 225 245 274 282 267 299 303 299 283 300 289 296 308 308 301 271 265 261 247 227 222 220 225 233 236 238 240 244 247 314 340 352 227 204 218 223 217 217 209 205 207 213 213 208 210 218
239 238 224 234 260 257 246 279 285 275 304 304 289 292 296 306 319 308 270 253 252 253 240 226 226 227 237 244 242 249 258 263 276 326 335 31 102 213 232 227 208 223 218 218 212 217 219 219 224